Home > Weather > Pratteln > Past weeks

Flag for Switzerland Weather for the Past 2 Weeks in Pratteln, Basel-Land, Switzerland

Now
41 °F

Partly sunny.


Feels Like: 34 °F
Forecast: 35 / 42 °F
Wind: 13 mph from Southeast

Location: Bale-Mulhouse

Current Time: Feb 12, 2016 at 11:38:08 AM

Latest Report: Feb 12, 2016 at 11:00 AM


Visibility: N/A

Pressure: 29.53 "Hg

Humidity: 76%

Dew point: 34 °F

Location of PrattelnLocation

Historic Weather in Pratteln — Graph

°F

Pratteln Temperature Yesterday

Maximum temperature yesterday: 46 °F (at 2:30 PM)
Minimum temperature yesterday: 32 °F (at 2:00 AM)
Average temperature yesterday: 38 °F

High & Low Weather Summary for the Past Weeks

 TemperatureHumidityPressure
High57 °F (Feb 1, 4:00 AM)100% (Jan 28, 5:30 PM)30.51 "Hg (Jan 28, 5:30 PM)
Low30 °F (Jan 30, 6:00 AM)49% (Feb 11, 3:00 PM)29.27 "Hg (Feb 9, 4:00 PM)
Average44 °F82%30.04 "Hg
* Reported Jan 28 10:00 AM — Feb 12 10:30 AM, Pratteln, Weather by CustomWeather, © 2016

Note: Actual official high and low records may vary slightly from our data, if they occured in-between our weather recording intervals... More about our weather records

Advertising

Pratteln Weather History for the Previous 24 Hours

 ConditionsComfort  
Time TempWeatherWind HumidityBarometerVisibility
10:30 AM
Fri, Feb 12
41 °FScattered clouds.10 mph76%29.56 "HgN/A
10:00 AM39 °FScattered clouds.12 mph81%29.56 "HgN/A
9:30 AM37 °FPassing clouds.8 mph87%29.59 "HgN/A
9:00 AM36 °FPassing clouds.3 mph93%29.59 "HgN/A
8:30 AM34 °FPassing clouds.6 mph100%29.62 "HgN/A
8:00 AM34 °FScattered clouds.6 mph93%29.62 "HgN/A
7:30 AM34 °FPartly cloudy.6 mph100%29.65 "Hg4 mi
7:00 AM34 °FPassing clouds.3 mph100%29.68 "Hg5 mi
6:30 AM36 °FMostly cloudy.2 mph93%29.68 "HgN/A
6:00 AM34 °FPartly cloudy.3 mph100%29.68 "HgN/A
5:30 AM36 °FPartly cloudy.1 mph93%29.71 "Hg6 mi
5:00 AM36 °FPassing clouds.5 mph93%29.71 "Hg5 mi
4:30 AM36 °FScattered showers. Passing clouds.3 mph93%29.71 "HgN/A
4:00 AM36 °FDrizzle. Mostly cloudy.2 mph93%29.71 "HgN/A
3:30 AM36 °FPassing clouds.2 mph93%29.74 "HgN/A
3:00 AM36 °FLight rain. Partly cloudy.3 mph93%29.74 "HgN/A
2:30 AM36 °FLight rain. Partly cloudy.6 mph93%29.74 "HgN/A
2:00 AM37 °FOvercast.6 mph87%29.74 "HgN/A
1:30 AM37 °FLight rain. Mostly cloudy.5 mph87%29.74 "HgN/A
1:00 AM37 °FPassing clouds.3 mph81%29.74 "HgN/A
12:30 AM37 °FMostly cloudy.No wind81%29.74 "HgN/A
12:00 AM37 °FPassing clouds.3 mph81%29.74 "HgN/A
11:00 PM
Thu, Feb 11
37 °FPassing clouds.2 mph75%29.74 "HgN/A
10:30 PM37 °FPassing clouds.2 mph81%29.74 "HgN/A
10:00 PM37 °FPassing clouds.2 mph81%29.74 "HgN/A
9:30 PM36 °FClear.1 mph87%29.74 "Hg10 mi
9:00 PM37 °FClear.2 mph81%29.74 "Hg10 mi
8:30 PM37 °FClear.3 mph87%29.74 "Hg10 mi
8:00 PM37 °FClear.2 mph87%29.74 "Hg10 mi
7:30 PM37 °FPassing clouds.2 mph87%29.74 "HgN/A
7:00 PM39 °FPassing clouds.2 mph75%29.74 "HgN/A
6:30 PM39 °FPassing clouds.3 mph81%29.74 "HgN/A
6:00 PM41 °FPartly cloudy.3 mph70%29.74 "HgN/A
5:30 PM41 °FBroken clouds.5 mph70%29.71 "HgN/A
5:00 PM43 °FPartly sunny.3 mph66%29.71 "HgN/A
4:30 PM45 °FPartly sunny.2 mph49%29.71 "HgN/A
4:00 PM45 °FMostly cloudy.No wind49%29.74 "HgN/A
3:30 PM45 °FMostly cloudy.3 mph53%29.71 "HgN/A
3:00 PM45 °FPartly sunny.2 mph49%29.74 "HgN/A
2:30 PM46 °FPartly sunny.5 mph50%29.74 "HgN/A
2:00 PM45 °FBroken clouds.2 mph53%29.74 "HgN/A
1:30 PM45 °FBroken clouds.6 mph53%29.77 "HgN/A
1:00 PM45 °FScattered clouds.3 mph53%29.77 "HgN/A
12:30 PM45 °FScattered clouds.3 mph57%29.80 "HgN/A
12:00 PM45 °FScattered clouds.6 mph61%29.80 "HgN/A
11:30 AM45 °FPassing clouds.2 mph57%29.80 "HgN/A
11:00 AM45 °FPassing clouds.2 mph57%29.80 "HgN/A
Weather by CustomWeather, © 2016

See weather overviewHow to use our weather pages